User: anonymous   Login
Location: Unspecified
(0.0000°N, 0.0000°E)
Time: 06:06:15
(UTC+00:00)
Language:

AEHF 2 (USA 235) - Orbit

View from above orbital plane
View from above orbital plane
View from above satellite
View from above satellite

Ground track
Ground track

The orbit data is extracted from the following two-line orbital elements,

1 38254U 12019A   18144.52204613 0.00000000  00000-0  00000-0 0    09
2 38254   1.4824   2.3665 0003451 115.0410 245.0131  1.00270000    06
Epoch (UTC): 24 May 2018 12:31:44
Eccentricity: 0.0003451
inclination: 1.4824°
perigee height: 35772 km
apogee height: 35801 km
right ascension of ascending node: 2.3665°
argument of perigee: 115.0410°
revolutions per day: 1.00270000
mean anomaly at epoch: 245.0131°
orbit number at epoch: 0

The dashed part of the orbit path shows where the satellite is in the earth's shadow,  

DLR